CO-57
1 27848U 03031J 15218.75942811 .00000102 00000-0 66745-4 0 9995
2 27848 098.7055 226.4995 0010034 155.7507 291.3176 14.21473886627536
AO-51
1 28375U 04025K 15218.83662417 .00000072 00000-0 34166-4 0 9993
2 28375 098.2942 157.8337 0082741 175.7546 184.4364 14.41683725583784
CP3
1 31129U 07012N 15218.85279661 .00000457 00000-0 10787-3 0 9999
2 31129 097.9850 182.4330 0096955 155.1178 262.9897 14.55892770440491
CO-65
1 32785U 08021C 15218.85715131 .00000825 00000-0 97904-4 0 9992
2 32785 097.6451 260.5455 0011872 257.8983 189.5433 14.86992333393766
PRISM
1 33493U 09002B 15219.41656103 .00001621 00000-0 15951-3 0 9991
2 33493 098.2474 059.3188 0016210 157.6508 202.5403 14.93533450354223
SOHLA-1
1 33496U 09002E 15219.37094481 .00000302 00000-0 57028-4 0 9991
2 33496 098.2186 347.7063 0006464 013.6271 001.8750 14.71403695350707
TISAT-1
1 36799U 10035E 15219.28930652 .00001769 00000-0 19524-3 0 9993
2 36799 098.0182 320.2710 0013804 044.9119 336.3501 14.88716486274561
STUDSAT
1 36801U 10035G 15219.38122774 .00013812 00000-0 76991-3 0 9999
2 36801 098.0653 341.7367 0004732 334.3805 061.5749 15.13714179275717
ALMASAT-1
1 38078U 12006B 15219.09652386 .00021671 33672-5 36371-3 0 9998
2 38078 069.4550 111.8648 0471644 187.2304 172.1884 14.81014115182577
CUBEBUG-1
1 39153U 13018D 15219.49168218 .00000908 00000-0 12878-3 0 9997
2 39153 098.0162 303.7091 0018719 088.1033 272.2322 14.79337554123061
ESTCUBE-1
1 39161U 13021C 15219.41415734 .00000617 00000-0 10808-3 0 9998
2 39161 098.0703 301.8926 0010375 145.6177 214.5707 14.71249835120772
DUCHIFAT-1
1 40021U 14033M 15219.54516044 .00001847 00000-0 20591-3 0 9995
2 40021 097.9488 120.2946 0014236 022.3246 337.8587 14.88224788 61441
NANOSATCBR1
1 40024U 14033Q 15219.28108441 .00001559 00000-0 17675-3 0 9996
2 40024 097.9470 119.7729 0013409 022.7820 337.3989 14.87782954 61398
DTUSAT-2
1 40030U 14033W 15219.52224173 .00001240 00000-0 14492-3 0 9992
2 40030 097.9456 119.5528 0012796 016.5460 343.6170 14.86906639 61404
ANTELSAT
1 40034U 14033AA 15219.26861950 .00000786 00000-0 12749-3 0 9994
2 40034 097.9376 110.1771 0059576 317.4302 042.2282 14.72828085 60814
MET-2/21
1 22782U 93055A 15219.12497848 .00000042 00000-0 24576-4 0 9998
2 22782 082.5479 203.2464 0022445 174.6019 233.9263 13.83772641107642
OKEAN-4
1 23317U 94066A 15218.78367071 .00000722 00000-0 78047-4 0 9998
2 23317 082.5363 037.8971 0020642 158.1491 331.4734 14.86765640124822
NOAA-14
1 23455U 94089A 15219.49901777 -.00000009 00000-0 18316-4 0 9994
2 23455 098.7504 299.8921 0008448 297.1657 134.8092 14.14048938 62787
NOAA-15
1 25338U 98030A 15219.53098764 .00000105 00000-0 63163-4 0 9990
2 25338 098.7746 218.2063 0011105 025.5934 334.5793 14.25650742896151
RESURS
1 25394U 98043A 15218.78440703 -.00000032 00000-0 44962-5 0 9993
2 25394 098.4689 172.0528 0002406 108.0365 309.4417 14.24458023887485
FENGYUN1
1 25730U 99025A 15219.14495466 .00001222 00000-0 67122-3 0 9997
2 25730 098.9448 183.9946 0021656 004.9673 062.7380 14.13550897836253
OKEAN-0
1 25860U 99039A 15218.76318439 .00000349 00000-0 58117-4 0 9991
2 25860 098.0988 186.9105 0001605 107.2365 011.8799 14.76102106863449
NOAA-16
1 26536U 00055A 15219.28741546 .00000008 00000-0 28153-4 0 9998
2 26536 098.9388 285.2083 0011589 089.0059 271.2441 14.13104513766870
NOAA-17
1 27453U 02032A 15219.55099544 .00000032 00000-0 31379-4 0 9999
2 27453 098.3439 203.0150 0012520 037.2780 322.9267 14.24894318681973
NOAA-18
1 28654U 05018A 15219.49930675 .00000117 00000-0 88943-4 0 9995
2 28654 099.1868 213.4011 0014334 172.6185 187.5199 14.12224425526319
NOAA-19
1 33591U 09005A 15219.47119956 .00000126 00000-0 93207-4 0 9999
2 33591 098.9931 169.4827 0014666 029.4650 330.7345 14.11963712334727
HUBBLE
1 20580U 90037B 15219.29428002 .00001470 00000-0 82809-4 0 9992
2 20580 028.4691 177.0712 0003096 069.0094 077.2294 15.07599117187538
ISS
1 25544U 98067A 15219.44084501 .00006044 00000-0 95322-4 0 9993
2 25544 051.6449 188.1198 0001253 049.8433 094.2037 15.55033837956015
CO-58
1 28895U 05043F 15218.74139813 .00000474 00000-0 10125-3 0 9994
2 28895 097.8220 043.8742 0018093 133.7668 226.5036 14.62856719520982
FALCON
1 30776U 07006E 15218.67153755 .00005959 00000-0 23495-3 0 9996
2 30776 035.4291 044.5038 0001714 350.1914 090.3049 15.24996689464018
MAST
1 31126U 07012K 15218.92052937 .00000324 00000-0 79366-4 0 9991
2 31126 097.9651 184.6643 0091792 136.9593 294.3866 14.56106886440874
CAPE1
1 31130U 07012P 15218.77803617 .00000397 00000-0 95461-4 0 9992
2 31130 097.9867 181.8185 0097624 157.3423 203.2129 14.55562294440247
COMPASS
1 32787U 08021E 15218.74696471 .00001706 00000-0 17815-3 0 9998
2 32787 097.6474 264.8604 0011720 241.7610 118.2426 14.90935233394041
AAUSAT2
1 32788U 08021F 15218.10165597 .00001707 00000-0 17370-3 0 9996
2 32788 097.6485 265.8339 0011151 240.0415 119.9698 14.91997329394047
DO-64
1 32789U 08021G 15218.81649178 .00004053 00000-0 32642-3 0 9993
2 32789 097.6767 278.2290 0011365 230.8626 221.4662 15.00452412394672
CO-66
1 32791U 08021J 15219.10060019 .00001136 00000-0 12645-3 0 9990
2 32791 097.6470 262.8953 0012399 248.4317 111.5579 14.88941851393895
RS-30
1 32953U 08025A 15219.34419578 .00000010 00000-0 -13620-7 0 9997
2 32953 082.5050 302.4289 0017834 331.8352 028.1763 12.43062377326968
METEOR-M
1 35865U 09049A 15219.09162523 .00000033 00000-0 34062-4 0 9990
2 35865 098.4969 257.6043 0002009 357.4225 062.5121 14.22042202305442
RS-38
1 35869U 09049E 15219.10360218 .00000014 00000-0 25267-4 0 9993
2 35869 098.4870 257.2184 0004099 338.8799 021.2214 14.22304977305499
JUGNU
1 37839U 11058B 15218.46165874 .00000362 00000-0 51033-4 0 9990
2 37839 019.9606 257.7383 0018715 240.3390 271.9983 14.12480809197330
SRMSAT
1 37841U 11058D 15219.53382464 .00000345 00000-0 44660-4 0 9997
2 37841 019.9715 278.9864 0011836 175.1172 322.9256 14.10490607197204
RAX-2
1 37853U 11061D 15218.62755723 .00003253 00000-0 20358-3 0 9993
2 37853 101.7066 094.4815 0193984 288.4518 123.4159 14.96614842204657
AUBIESAT
1 37854U 11061E 15219.20800659 .00003752 00000-0 22670-3 0 9991
2 37854 101.7099 099.1501 0184730 280.8053 199.7986 14.98800259204865
HRBE
1 37855U 11061F 15218.63461991 .00002737 00000-0 16771-3 0 9997
2 37855 101.7081 096.7414 0194296 285.9493 072.0385 14.97599905204706
HORYU-2
1 38340U 12025D 15218.47248427 .00000875 00000-0 13986-3 0 9993
2 38340 098.3175 189.7129 0010732 300.7095 059.3055 14.74418024172942
RS-40
1 38735U 12041C 15219.40151648 .00000040 00000-0 21992-3 0 9991
2 38735 082.4728 028.0386 0017681 069.8967 290.4016 12.42569664137271
PROITERES
1 38756U 12047B 15219.38656102 .00000417 00000-0 68530-4 0 9990
2 38756 098.2237 319.5493 0013172 130.9609 229.2742 14.75881674156559
BEESAT-3
1 39134U 13015E 15219.19506394 .00004317 00000-0 25369-3 0 9998
2 39134 064.8714 254.2498 0028661 245.4697 114.3438 15.12710213126417
BEESAT-2
1 39136U 13015G 15219.50563233 .00004005 00000-0 24745-3 0 9991
2 39136 064.8724 256.0846 0029293 244.3225 115.4872 15.10995491126419
ZACUBE-1
1 39417U 13066B 15218.16819860 .00000704 00000-0 97607-4 0 9990
2 39417 097.7263 278.8018 0059597 335.0679 024.7657 14.79828040 92029
TRITON-1
1 39427U 13066M 15218.76195869 .00000629 00000-0 11045-3 0 9990
2 39427 097.7110 266.5271 0115689 006.4386 353.8274 14.66741735 91273
